Location: Unspecified
(0.0000°N, 0.0000°E)
Time: 09:29:13
(UTC+00:00)

ACS3 Solar Sail - Pass Details

Date: 12 November 2025
Orbit: 910 x 992 km, 97.3° (Epoch: 12 November)

Event Time Altitude Azimuth Distance (km) Brightness Sun altitude
Exits shadow 03:37:39 11° 207° (SSW) 2,671 4.0 -30.0°
Drops below altitude 10° 03:37:53 10° 207° (SSW) 2,753 4.1 -29.9°
Sets 03:40:27 0° 201° (SSW) 3,705 4.8 -29.3°
